User: anonymous   Login
Location: Fishcreek Rd Observing Site
(41.1865°N, 81.4271°W)
Time: 21:49:44
(UTC-04:00)
Language:

Hubble Space Telescope - Orbit

View from above orbital plane
View from above orbital plane
View from above satellite
View from above satellite

Ground track
Ground track

The orbit data is extracted from the following two-line orbital elements,

1 20580U 90037B   19084.38769642  .00000426  00000-0  15042-4 0  9999
2 20580  28.4700  55.9930 0002436 287.7532 207.5054 15.09192669387995
Epoch (UTC): 25 March 2019 09:18:16
Eccentricity: 0.0002436
inclination: 28.4700°
perigee height: 537 km
apogee height: 540 km
right ascension of ascending node: 55.9930°
argument of perigee: 287.7532°
revolutions per day: 15.09192669
mean anomaly at epoch: 207.5054°
orbit number at epoch: 38799

The dashed part of the orbit path shows where the satellite is in the earth's shadow,  

DLR